This is the latest recevied weather packets stored in our database for station/object EA3KZ-1. If no packets are shown the sender has not sent any weather packets the latest 10 day(s).
| Time | Temp. | Humidity | Pressure | Rain* | Wind** | Luminosity | Snow |
|---|---|---|---|---|---|---|---|
| 1777143016 | 18.33° C | 68% | 1013.3 hPa | 0 mm | - | - | - |
| 1777142474 | 18.33° C | 66% | 1013.2 hPa | 0 mm | - | - | - |
| 1777141871 | 18.89° C | 66% | 1013 hPa | 0 mm | - | - | - |
| 1777141269 | 18.89° C | 65% | 1013 hPa | 0 mm | - | - | - |
| 1777140666 | 18.89° C | 64% | 1012.9 hPa | 0 mm | - | - | - |
| 1777140064 | 18.89° C | 65% | 1013 hPa | 0 mm | - | - | - |
| 1777139461 | 19.44° C | 65% | 1012.9 hPa | 0 mm | - | - | - |
| 1777138858 | 19.44° C | 65% | 1013 hPa | 0 mm | - | - | - |
| 1777138256 | 19.44° C | 65% | 1013 hPa | 0 mm | - | - | - |
| 1777137653 | 19.44° C | 64% | 1013.1 hPa | 0 mm | - | - | - |
| 1777137051 | 19.44° C | 64% | 1013.1 hPa | 0 mm | - | - | - |
| 1777136448 | 20° C | 62% | 1013.1 hPa | 0 mm | - | - | - |
| 1777135845 | 20° C | 62% | 1013 hPa | 0 mm | - | - | - |
| 1777135243 | 19.44° C | 62% | 1013 hPa | 0 mm | - | - | - |
| 1777134640 | 19.44° C | 62% | 1013.1 hPa | 0 mm | - | - | - |
| 1777134037 | 20° C | 60% | 1013 hPa | 0 mm | - | - | - |
| 1777133435 | 21.11° C | 57% | 1012.9 hPa | 0 mm | - | - | - |
| 1777132832 | 21.11° C | 56% | 1012.8 hPa | 0 mm | - | - | - |
| 1777132229 | 21.67° C | 55% | 1012.8 hPa | 0 mm | - | - | - |
| 1777131627 | 21.11° C | 55% | 1012.8 hPa | 0 mm | - | - | - |
| 1777131024 | 21.11° C | 54% | 1012.6 hPa | 0 mm | - | - | - |
| 1777130422 | 21.11° C | 54% | 1012.6 hPa | 0 mm | - | - | - |
| 1777129819 | 21.67° C | 53% | 1012.5 hPa | 0 mm | - | - | - |
| 1777129216 | 21.67° C | 52% | 1012.6 hPa | 0 mm | - | - | - |
| 1777128674 | 21.67° C | 53% | 1012.6 hPa | 0 mm | - | - | - |
* Rain latest hour (hover to see other rain measurements)
** Current wind speed in m/s (hover to see current wind gust speed)